TimeCST,TemperatureF,Dew PointF,Humidity,Sea Level PressureIn,VisibilityMPH,Wind Direction,Wind SpeedMPH,Gust SpeedMPH,PrecipitationIn,Events,Conditions,WindDirDegrees,DateUTC
12:15 AM,30.2,26.6,86,29.91,5.0,Calm,Calm,-,N/A,,Haze,0,2012-12-19 06:15:00
12:35 AM,32.0,26.6,80,29.90,5.0,Calm,Calm,-,N/A,,Haze,0,2012-12-19 06:35:00
12:55 AM,32.0,26.6,80,29.90,5.0,Calm,Calm,-,N/A,,Haze,0,2012-12-19 06:55:00
1:15 AM,30.2,26.6,86,29.91,5.0,Calm,Calm,-,N/A,,Haze,0,2012-12-19 07:15:00
1:35 AM,32.0,26.6,80,29.92,5.0,Calm,Calm,-,N/A,,Haze,0,2012-12-19 07:35:00
1:55 AM,30.2,26.6,86,29.93,4.0,South,5.8,-,N/A,,Clear,170,2012-12-19 07:55:00
2:15 AM,32.0,26.6,80,29.94,5.0,South,4.6,-,N/A,,Haze,180,2012-12-19 08:15:00
2:35 AM,32.0,26.6,80,29.95,5.0,South,3.5,-,N/A,,Haze,180,2012-12-19 08:35:00
2:55 AM,32.0,26.6,80,29.95,5.0,South,3.5,-,N/A,,Haze,180,2012-12-19 08:55:00
3:15 AM,30.2,26.6,86,29.95,5.0,Calm,Calm,-,N/A,,Clear,0,2012-12-19 09:15:00
3:35 AM,30.2,26.6,86,29.95,4.0,South,3.5,-,N/A,,Clear,170,2012-12-19 09:35:00
3:55 AM,30.2,26.6,86,29.94,4.0,Calm,Calm,-,N/A,,Haze,0,2012-12-19 09:55:00
4:15 AM,30.2,26.6,86,29.93,4.0,East,3.5,-,N/A,,Haze,90,2012-12-19 10:15:00
4:35 AM,30.2,26.6,86,29.93,4.0,East,3.5,-,N/A,,Haze,90,2012-12-19 10:35:00
4:55 AM,30.2,26.6,86,29.95,4.0,SSE,3.5,-,N/A,,Clear,150,2012-12-19 10:55:00
5:15 AM,32.0,26.6,80,29.95,4.0,SSE,4.6,-,N/A,,Haze,150,2012-12-19 11:15:00
5:35 AM,32.0,26.6,80,29.94,4.0,ESE,4.6,-,N/A,,Haze,120,2012-12-19 11:35:00
5:55 AM,32.0,26.6,80,29.95,4.0,SSE,3.5,-,N/A,,Haze,160,2012-12-19 11:55:00
6:15 AM,32.0,26.6,80,29.95,4.0,East,3.5,-,N/A,,Haze,100,2012-12-19 12:15:00
6:35 AM,32.0,26.6,80,29.93,4.0,ENE,5.8,-,N/A,,Haze,70,2012-12-19 12:35:00
6:55 AM,33.8,28.4,81,29.95,4.0,ESE,4.6,-,N/A,,Haze,110,2012-12-19 12:55:00
7:15 AM,33.8,28.4,81,29.95,4.0,East,4.6,-,N/A,,Haze,100,2012-12-19 13:15:00
7:35 AM,33.8,28.4,81,29.96,4.0,East,3.5,-,N/A,,Scattered Clouds,90,2012-12-19 13:35:00
7:55 AM,33.8,28.4,81,29.95,3.0,ENE,6.9,-,N/A,,Haze,70,2012-12-19 13:55:00
8:15 AM,33.8,28.4,81,29.95,2.5,East,6.9,-,N/A,,Clear,80,2012-12-19 14:15:00
8:35 AM,33.8,28.4,81,29.94,2.5,East,8.1,-,N/A,,Scattered Clouds,80,2012-12-19 14:35:00
8:55 AM,33.8,28.4,81,29.95,2.5,East,9.2,-,N/A,,Haze,100,2012-12-19 14:55:00
9:15 AM,33.8,30.2,87,29.94,1.8,East,11.5,-,N/A,,Overcast,90,2012-12-19 15:15:00
9:35 AM,33.8,30.2,87,29.96,1.8,East,8.1,-,N/A,,Overcast,90,2012-12-19 15:35:00
9:55 AM,35.6,30.2,81,29.98,2.0,ESE,8.1,-,N/A,,Haze,110,2012-12-19 15:55:00
10:15 AM,35.6,30.2,81,29.96,2.0,ENE,9.2,-,N/A,,Haze,70,2012-12-19 16:15:00
10:35 AM,35.6,30.2,81,29.96,2.5,East,9.2,-,N/A,,Haze,80,2012-12-19 16:35:00
10:55 AM,35.6,30.2,81,29.97,3.0,East,9.2,-,N/A,,Haze,80,2012-12-19 16:55:00
11:15 AM,35.6,30.2,81,29.96,4.0,East,8.1,-,N/A,,Haze,80,2012-12-19 17:15:00
11:35 AM,37.4,30.2,75,29.95,4.0,ENE,10.4,-,N/A,,Haze,70,2012-12-19 17:35:00
11:55 AM,37.4,30.2,75,29.94,4.0,East,10.4,-,N/A,,Haze,80,2012-12-19 17:55:00
12:15 PM,37.4,30.2,75,29.92,5.0,ENE,11.5,-,N/A,,Haze,70,2012-12-19 18:15:00
12:35 PM,37.4,32.0,81,29.92,5.0,ENE,8.1,-,N/A,,Haze,70,2012-12-19 18:35:00
12:55 PM,37.4,32.0,81,29.91,5.0,ENE,9.2,-,N/A,,Haze,70,2012-12-19 18:55:00
1:15 PM,37.4,32.0,81,29.89,5.0,ENE,10.4,-,N/A,,Haze,70,2012-12-19 19:15:00
1:35 PM,37.4,32.0,81,29.89,5.0,East,8.1,-,N/A,,Haze,80,2012-12-19 19:35:00
1:55 PM,37.4,32.0,81,29.89,4.0,East,11.5,15.0,N/A,,Haze,90,2012-12-19 19:55:00
2:15 PM,37.4,32.0,81,29.87,4.0,East,11.5,-,N/A,,Haze,80,2012-12-19 20:15:00
2:35 PM,37.4,32.0,81,29.85,2.5,East,13.8,17.3,N/A,Rain,Light Rain,80,2012-12-19 20:35:00
2:55 PM,37.4,30.2,75,29.83,3.0,NE,16.1,-,N/A,Rain,Rain,50,2012-12-19 20:55:00
3:15 PM,37.4,32.0,81,29.80,2.5,ENE,18.4,-,0.02,Rain,Light Rain,60,2012-12-19 21:15:00
3:35 PM,35.6,32.0,87,29.80,3.0,ENE,16.1,-,0.03,Rain,Light Rain,60,2012-12-19 21:35:00
3:55 PM,35.6,30.2,81,29.84,2.5,East,12.7,-,0.03,Rain,Light Rain,80,2012-12-19 21:55:00
4:15 PM,35.6,30.2,81,29.83,1.8,ENE,12.7,-,N/A,Rain,Light Rain,70,2012-12-19 22:15:00
4:35 PM,35.6,30.2,81,29.80,2.5,ENE,17.3,-,0.01,Snow,Light Snow,60,2012-12-19 22:35:00
4:55 PM,35.6,30.2,81,29.80,2.5,ENE,17.3,-,0.03,Snow,Light Snow,60,2012-12-19 22:55:00
5:15 PM,35.6,30.2,81,29.80,2.5,ENE,13.8,21.9,0.01,Snow,Light Snow,70,2012-12-19 23:15:00
5:35 PM,35.6,30.2,81,29.80,3.0,ENE,16.1,-,0.02,Snow,Light Snow,60,2012-12-19 23:35:00
5:55 PM,35.6,30.2,81,29.80,3.0,ENE,15.0,-,0.02,,Overcast,60,2012-12-19 23:55:00
6:15 PM,35.6,30.2,81,29.79,2.5,ENE,13.8,-,0.02,Rain,Light Rain,70,2012-12-20 00:15:00
6:35 PM,35.6,30.2,81,29.76,2.5,ENE,18.4,23.0,0.02,Rain,Light Rain,70,2012-12-20 00:35:00
6:55 PM,35.6,30.2,81,29.73,3.0,ENE,21.9,27.6,0.03,Rain,Light Rain,70,2012-12-20 00:55:00
7:15 PM,35.6,30.2,81,29.70,3.0,ENE,23.0,27.6,N/A,,Haze,70,2012-12-20 01:15:00
7:35 PM,35.6,32.0,87,29.69,3.0,ENE,23.0,28.8,N/A,,Overcast,70,2012-12-20 01:35:00
7:55 PM,35.6,32.0,87,29.69,3.0,East,18.4,28.8,N/A,Rain,Light Rain,80,2012-12-20 01:55:00
8:15 PM,35.6,32.0,87,29.69,3.0,East,19.6,27.6,0.01,Rain,Light Rain,80,2012-12-20 02:15:00
8:35 PM,35.6,32.0,87,29.67,3.0,ENE,19.6,27.6,0.02,Rain,Light Rain,70,2012-12-20 02:35:00
8:55 PM,35.6,32.0,87,29.73,3.0,North,8.1,21.9,0.06,Rain,Rain,10,2012-12-20 02:55:00
9:15 PM,35.6,30.2,81,29.72,4.0,NNE,5.8,-,0.02,Rain,Light Rain,30,2012-12-20 03:15:00
9:35 PM,35.6,30.2,81,29.68,4.0,NE,12.7,-,0.04,Rain,Light Rain,50,2012-12-20 03:35:00
9:55 PM,35.6,30.2,81,29.68,4.0,NE,9.2,-,0.06,,Overcast,50,2012-12-20 03:55:00
10:15 PM,35.6,30.2,81,29.62,1.8,ENE,19.6,-,0.07,Snow,Light Snow,70,2012-12-20 04:15:00
10:35 PM,35.6,30.2,81,29.64,2.5,NNE,12.7,18.4,0.14,,Overcast,30,2012-12-20 04:35:00
10:55 PM,35.6,30.2,81,29.62,3.0,NNE,15.0,-,0.17,Rain,Light Rain,30,2012-12-20 04:55:00
11:15 PM,35.6,30.2,81,29.63,4.0,North,12.7,-,0.02,Rain,Light Rain,360,2012-12-20 05:15:00
11:35 PM,35.6,30.2,81,29.62,5.0,North,15.0,21.9,0.03,,Overcast,10,2012-12-20 05:35:00
11:55 PM,35.6,30.2,81,29.59,7.0,NNE,17.3,24.2,0.03,,Overcast,30,2012-12-20 05:55:00